Regional Weather Roundup
Issued by NWS

Home | Current Version | Previous Version | Graphics & Text | Print | Product List | Glossary Off
Versions: 1 2 3 4 5 6 7 8 9 10 11 12 13 14 15 16 17 18 19 20 21 22 23 24 25 26 27 28 29 30 31 32 33 34 35 36 37 38 39 40 41 42 43 44 45 46 47 48 49 50

000
ASUS43 KMKX 250500
RWRWI

WISCONSIN REGIONAL WEATHER ROUNDUP
NATIONAL WEATHER SERVICE MILWAUKEE/SULLIVAN WI
1200 AM CDT WED MAY 25 2016

NOTE: "FAIR" INDICATES FEW OR NO CLOUDS BELOW 12,000 FEET WITH NO
SIGNIFICANT WEATHER AND/OR OBSTRUCTIONS TO VISIBILITY.

WIZ001-002-006>008-014>016-023>028-250600-
NORTHWEST WISCONSIN

CITY           SKY/WX    TMP DP  RH WIND       PRES   REMARKS
SUPERIOR ARPT  FOG       46  46 100 E6        30.03R VSB 3/4
ASHLAND        FOG       48  48 100 N6        30.02F VSB 1/4
HAYWARD        CLEAR     59  57  93 NE7       29.99R
SIREN          CLEAR     60  58  92 NE3       29.96R
CUMBERLAND     CLEAR     59  55  88 NE5       29.96S
RICE LAKE      CLEAR     60  55  84 CALM      29.97S
CHETEK         CLEAR     62  59  88 CALM      29.95S
LADYSMITH      CLEAR     63  59  87 NE5       29.98S
EAU CLAIRE     NOT AVBL
MENOMONIE      CLEAR     62  55  79 CALM      29.94S
NEW RICHMOND   CLEAR     64  54  69 E5        29.94S
OSCEOLA        CLEAR     62  60  95 CALM      29.95F
$$

WIZ003>005-009-010-017-018-250600-
NORTH CENTRAL WISCONSIN

CITY           SKY/WX    TMP DP  RH WIND       PRES   REMARKS
MANITOWISH WTR NOT AVBL
ARBOR VITAE    CLEAR     57  55  95 CALM      30.00S
WOODRUFF       CLEAR     57  55  95 CALM      30.00S
RHINELANDER    FOG       55  53  93 CALM      30.00S VSB 1
EAGLE RIVER    FOG       56  56 100 CALM      30.00S VSB 1
LAND O LAKES   CLOUDY    62  62 100 CALM      30.02R
PHILLIPS       CLEAR     57  57 100 CALM      29.99S
TOMAHAWK       CLEAR     54  53  95 CALM      30.00S
MEDFORD        CLEAR     60  57  91 NE6       29.98S
MERRILL        PTCLDY    58  56  96 CALM      29.99S
$$

WIZ029-030-035-036-043>047-250600-
CENTRAL WISCONSIN

CITY           SKY/WX    TMP DP  RH WIND       PRES   REMARKS
WAUSAU         PTCLDY    67  57  70 CALM      29.95S
MOSINEE        CLEAR     64  55  72 CALM      29.97F
MARSHFIELD     CLEAR     63  56  78 CALM      29.96R
STEVENS POINT  CLEAR     56  52  88 CALM      29.96S
WAUPACA        CLEAR     62  56  82 CALM      29.96S
WAUTOMA        CLEAR     59  56  89 CALM      29.96S
WISC RAPIDS    PTCLDY    61  56  83 CALM      29.97R
CAMP DOUGLAS   NOT AVBL
$$

WIZ011>013-019>022-031-037>040-048>050-250600-
NORTHEAST WISCONSIN

CITY           SKY/WX    TMP DP  RH WIND       PRES   REMARKS
ANTIGO         PTCLDY    57  55  92 CALM      29.99S
SHAWANO        CLEAR     63  59  88 N7        29.96R
OCONTO         CLEAR    N/A N/A N/A CALM      29.94S
STURGEON BAY   NOT AVBL
GREEN BAY      CLEAR     63  58  83 NE3       29.94S
MANITOWOC      NOT AVBL
APPLETON       CLEAR     64  52  63 CALM      29.94S
CLINTONVILLE   CLEAR     59  52  77 S3        29.95R
OSHKOSH        CLEAR     62  56  80 W3        29.95S
$$

WIZ032>034-041-042-053>061-250600-
SOUTHWEST WISCONSIN

CITY           SKY/WX    TMP DP  RH WIND       PRES   REMARKS
LA CROSSE      CLEAR     67  59  75 CALM      29.93R
SPARTA         CLEAR     58  56  93 CALM      29.95S
VIROQUA        CLEAR     68  56  65 E3        29.95S
BOSCOBEL       CLEAR     60  59  96 CALM      29.94R FOG
PRAIRIE DU CHI CLEAR     65  61  87 CALM      29.91F
PLATTEVILLE    PTCLDY    70  60  70 E8        29.94F
$$

WIZ056-057-062-063-064-067-068-250600-
SOUTH CENTRAL WISCONSIN

CITY           SKY/WX    TMP DP  RH WIND       PRES   REMARKS
REEDSBURG      CLEAR     62  59  91 CALM      29.95R
BARABOO/DELLS  CLEAR     62  56  81 CALM      29.95S
LONE ROCK      NOT AVBL
MINERAL POINT  CLEAR     72  55  56 E7        29.95S
MADISON        CLEAR     66  59  78 CALM      29.94F
MIDDLETON      MOCLDY    65  59  81 CALM      29.96S
WATERTOWN      CLOUDY    64  64  99 CALM      29.95S
MONROE         PTCLDY    70  59  68 E6        29.95F
JANESVILLE     MOCLDY    68  61  77 CALM      29.94F
$$

WIZ051-052-058>065-066-070>072-250600-
SOUTHEAST WISCONSIN

CITY           SKY/WX    TMP DP  RH WIND       PRES   REMARKS
MILWAUKEE      MOCLDY    62  51  67 SE3       29.96S
WAUKESHA       PTCLDY    63  61  94 CALM      29.97F
MILWAUKEE/TIMM PTCLDY    63  57  82 CALM      29.97S
RACINE         PTCLDY    62  50  64 CALM      29.97F
BURLINGTON     CLOUDY    69  60  73 SE3       29.96F
KENOSHA        CLOUDY    66  53  63 E3        29.96S
FOND DU LAC    CLEAR     59  57  93 CALM      29.95S
SHEBOYGAN      CLEAR     58  55  90 CALM      29.95F
WEST BEND      CLOUDY    61  59  94 CALM      29.96F
JUNEAU         CLOUDY    65  58  77 SE8       29.96F
$$

LSZ147-162-250600-
LAKE SUPERIOR

STATION/POSITION TIME  TEMP    WIND        PRES    WAVE
                       AIR SEA DIR/SP/G            HT/PER
                 (UTC) (F)     (DEG/KT/KT) (MB)    (FT/S)
W MID LAKE BUOY  0350   41 38  100/ 12/ 14 1017.0R   2/ 4
DEVILS ISLAND    0400   45      90/ 11/ 12 1017.7R
PORT WING        0240   45      30/ 15/ 22 1015.6
SAXON HARBOR     0400   46     360/  4/  6 1016.3R
$$

LMZ867-665-643>646-250600-
LAKE MICHIGAN

STATION/POSITION TIME  TEMP    WIND        PRES    WAVE
                       AIR SEA DIR/SP/G            HT/PER
                 (UTC) (F)     (DEG/KT/KT) (MB)    (FT/S)
CHAMBERS ISLAND  0400   57     350/  4/ 11 1014.6R
N MID LAKE BUOY  0350   48 44  170/  6/  6 1014.1S   2/ 5
NORTHPORT PIER   0400   52      CALM  /  7 1014.6R
SISTER BAY       0449   57        CALM       N/A
ALGOMA LAKESHORE 0417             CALM       N/A
KEWAUNEE LAKESHO 0400   59     180/  1/  3 1013.4R
SHEBOYGAN LAKESH 0400   63     230/  4/  4 1014.5S
PORT WASHINGTON  0400   62     270/  3/  3 1015.2
S MID LAKE BUOY  0350   63 49   90/  2/  2 1014.7R   0
KENOSHA   LAKESH 0400   58     360/  4/  5 1014.6S
$$

TC  - TEMPERATURE IN CELSIUS
VSB - VISIBILITY IN STATUTE MILES
WCI - WIND CHILL INDEX
HX  - HEAT INDEX




USA.gov is the U.S. government's official web portal to all federal, state and local government web resources and services.